Location: Ladd Observatory
(41.8387°N, 71.3996°W)
Time: 04:50:17
(UTC-05:00)

ISS - Visible Passes

Search period start: 08 December 2016 00:00
Search period end: 18 December 2016 00:00
Orbit: 401 x 410 km, 51.6° (Epoch: 08 December)

Date Brightness Start Highest point End Pass type
(mag) Time Alt. Az. Time Alt. Az. Time Alt. Az.
08 Dec -0.7 18:17:01 10° NW 18:17:57 13° NNW 18:17:57 13° NNW visible
09 Dec -1.1 17:24:42 10° NW 17:26:47 16° N 17:28:03 13° NNE visible
10 Dec -0.8 18:09:49 10° NNW 18:10:50 14° NNW 18:10:50 14° NNW visible
11 Dec -1.2 17:17:43 10° NW 17:19:45 15° N 17:20:58 13° NNE visible
12 Dec -1.2 18:02:17 10° NW 18:03:49 18° N 18:03:49 18° N visible
13 Dec -1.4 17:10:21 10° NNW 17:12:38 17° N 17:14:02 14° NE visible
13 Dec -0.2 18:46:29 10° NW 18:46:43 12° NW 18:46:43 12° NW visible
14 Dec -2.1 17:54:35 10° NW 17:57:01 29° N 17:57:01 29° N visible
15 Dec -1.9 17:02:42 10° NW 17:05:24 23° NNE 17:07:27 14° ENE visible
15 Dec -0.9 18:38:53 10° WNW 18:40:09 21° WNW 18:40:09 21° WNW visible
16 Dec -3.3 17:46:52 10° NW 17:50:09 61° NNE 17:50:46 49° E visible
17 Dec -2.6 16:54:55 10° NW 16:58:01 37° NNE 17:01:07 10° E visible
17 Dec -1.5 18:31:31 10° WNW 18:34:20 29° SW 18:34:20 29° SW visible
